This demonstration page uses our WeatherBlox Daily Observations layout. Learn more.

Left ArrowRight Arrow

39.01783, -85.05884

Hourly Observations for September 22, 2018

Temp ( °F °C ) Dew Point ( °F °C ) Humidity (%) Winds ( mph kmh ) Pressure ( in mb ) Visibility ( mi km ) Precip ( " mm )
12:52 am 00:52 Mostly Cloudy 70 21.1 56 13.3 61 61 NNW 12 19 30.10 1019 10 16 N/A
1:52 am 01:52 Cloudy 69 20.6 56 13.3 63 63 N 13 20 30.11 1020 10 16 N/A
2:52 am 02:52 Cloudy 67 19.4 54 12.2 63 63 N 18 30 30.13 1020 10 16 N/A
3:52 am 03:52 Cloudy 65 18.3 55 12.8 70 70 NNE 14 22 30.14 1021 10 16 N/A
4:52 am 04:52 Mostly Cloudy 64 17.8 53 11.7 68 68 NNE 14 22 30.15 1021 10 16 N/A
5:52 am 05:52 Mostly Cloudy 63 17.2 53 11.7 70 70 N 12 19 30.16 1021 10 16 N/A
6:52 am 06:52 Cloudy 63 17.2 52 11.1 68 68 NE 13 20 30.18 1022 10 16 N/A
7:52 am 07:52 Cloudy 62 16.7 52 11.1 70 70 NE 10 17 30.19 1023 10 16 N/A
8:52 am 08:52 Cloudy 63 17.2 52 11.1 68 68 NE 14 22 30.19 1022 10 16 N/A
9:52 am 09:52 Cloudy 64 17.8 54 12.2 70 70 NE 12 19 30.19 1023 10 16 N/A
10:52 am 10:52 Cloudy 64 17.8 54 12.2 70 70 ENE 12 19 30.21 1023 10 16 N/A
11:52 am 11:52 Mostly Cloudy 63 17.2 54 12.2 73 73 NE 13 20 30.22 1023 10 16 N/A
12:52 pm 12:52 Cloudy 63 17.2 54 12.2 73 73 NNE 10 17 30.21 1023 10 16 N/A
1:52 pm 13:52 Cloudy with Light Rain 62 16.7 57 13.9 84 84 NE 9 15 30.19 1022 9 14 0.02 0.51
2:52 pm 14:52 Cloudy with Light Rain 62 16.7 58 14.4 86 86 N 7 11 30.18 1022 9 14 0.01 0.25
3:52 pm 15:52 Cloudy with Light Rain 62 16.7 58 14.4 86 86 ENE 8 13 30.18 1022 10 16 N/A
4:52 pm 16:52 Cloudy with Light Rain 61 16.1 60 15.6 97 97 ENE 9 15 30.17 1022 9 14 0.02 0.51
5:52 pm 17:52 Cloudy with Light Rain 61 16.1 60 15.6 97 97 NNE 8 13 30.16 1021 6 10 0.03 0.76
6:38 pm 18:38 Cloudy with Light Rain 61 16.1 61 16.1 100 100 N 10 17 30.18 1022 5 8 0.02 0.51
6:52 pm 18:52 Cloudy with Light Rain 61 16.1 61 16.1 100 100 NNE 9 15 30.17 1022 5 8 0.04 1.02
7:52 pm 19:52 Cloudy with Light Rain 60 15.6 59 15 96 96 ENE 13 20 30.15 1021 7 11 0.03 0.76
7:58 pm 19:58 Cloudy with Light Rain 60 15.6 59 15 96 96 ENE 10 17 30.18 1022 10 16 N/A
8:52 pm 20:52 Cloudy 60 15.6 59 15 96 96 NE 8 13 30.16 1021 10 16 0.01 0.25
8:56 pm 20:56 Cloudy 60 15.6 60 15.6 100 100 NNE 9 15 30.18 1022 10 16 N/A
9:52 pm 21:52 Cloudy 60 15.6 59 15 96 96 ENE 10 17 30.15 1021 10 16 N/A
10:20 pm 22:20 Cloudy 60 15.6 59 15 96 96 NNE 9 15 30.18 1022 10 16 N/A
10:52 pm 22:52 Cloudy 60 15.6 59 15 96 96 ENE 9 15 30.16 1021 10 16 N/A
11:44 pm 23:44 Cloudy 60 15.6 58 14.4 93 93 ENE 8 13 30.18 1022 10 16 N/A
11:52 pm 23:52 Cloudy 59 15 58 14.4 96 96 ENE 10 17 30.15 1021 10 16 N/A

Powered by AerisWeather